Flag for Israel Weather past 2 weeks in Safed, Israel

Now
61 °F

Passing clouds.


Feels Like: 61 °F
Forecast: 45 / 54 °F
Wind: 13 mph from Southwest

Location: Beirut Airport

Current Time: Mar 3, 2015 at 2:17:13 AM

Latest Report: Mar 3, 2015 at 1:00 AM


Visibility: 5 mi

Pressure: 30.15 "Hg

Humidity: 72%

Dew point: 52 °F

Location of SafedLocation

Historic Weather in Safed — Graph

°F

Safed temperature yesterday

Maximum temperature yesterday: 64 °F (at 12:00 PM)
Minimum temperature yesterday: 57 °F (at 2:00 AM)
Average temperature yesterday: 60 °F

Past Weeks' High & Low Weather Summary

 TemperatureHumidityPressure
High77 °F (Feb 27, 3:00 PM)88% (Feb 25, 4:00 AM)30.24 "Hg (Feb 25, 4:00 AM)
Low41 °F (Feb 20, 10:00 AM)19% (Feb 27, 3:00 PM)29.71 "Hg (Feb 20, 5:00 AM)
Average57 °F62%30.03 "Hg
* Reported Feb 16 1:00 AM — Mar 3 1:00 AM, Safed, Weather by CustomWeather, © 2015

Note: Actual official high and low records may vary slightly from our data, if they occured in-between our weather recording intervals... More about our weather records

Advertising

Safed weather history for previous 24 hours

 ConditionsComfort  
Time TempWeatherWind HumidityBarometerVisibility
1:00 AM
Tue, Mar 3
61 °FPassing clouds.13 mph72%30.15 "Hg5 mi
12:00 AM61 °FPassing clouds.14 mph72%30.15 "Hg5 mi
11:00 PM
Mon, Mar 2
59 °FPassing clouds.5 mph77%30.15 "Hg5 mi
10:00 PM57 °FLight rain. Passing clouds.9 mph82%30.15 "Hg5 mi
9:00 PM61 °FPassing clouds.9 mph72%30.15 "Hg5 mi
8:00 PM61 °FPassing clouds.7 mph63%30.12 "Hg5 mi
7:00 PM61 °FPassing clouds.8 mph63%30.12 "Hg5 mi
6:00 PM63 °FPassing clouds.10 mph59%30.09 "Hg5 mi
5:00 PM63 °FPartly sunny.10 mph64%30.09 "Hg5 mi
4:00 PM63 °FPartly sunny.8 mph64%30.09 "Hg4 mi
3:00 PM63 °FLight rain. Partly sunny.8 mph64%30.09 "Hg4 mi
2:00 PM63 °FPartly sunny.9 mph59%30.09 "Hg4 mi
1:00 PM64 °FLight rain. Partly sunny.10 mph64%30.12 "Hg4 mi
12:00 PM64 °FLight rain. Partly sunny.10 mph64%30.12 "Hg4 mi
11:00 AM63 °FRain. Partly sunny.8 mph64%30.12 "Hg2 mi
10:00 AM63 °FRain. Partly sunny.7 mph68%30.12 "Hg2 mi
9:00 AM59 °FRain. Partly sunny.7 mph77%30.12 "Hg2 mi
8:00 AM61 °FPartly sunny.6 mph72%30.12 "HgN/A
7:00 AM57 °FPartly sunny.6 mph77%30.09 "HgN/A
6:00 AM57 °FPassing clouds.3 mph77%30.09 "HgN/A
5:00 AM57 °FPassing clouds.5 mph77%30.07 "HgN/A
4:00 AM57 °FLight rain. Passing clouds.3 mph82%30.07 "HgN/A
3:00 AM57 °FLight rain. Passing clouds.6 mph72%30.07 "HgN/A
2:00 AM57 °FPassing clouds.7 mph77%30.07 "Hg5 mi
Weather by CustomWeather, © 2015

See weather overviewHow to use our weather pages